TimeAKDT,TemperatureF,Dew PointF,Humidity,Sea Level PressureIn,VisibilityMPH,Wind Direction,Wind SpeedMPH,Gust SpeedMPH,PrecipitationIn,Events,Conditions,WindDirDegrees,DateUTC
12:53 AM,53.1,37.9,57,30.21,10.0,Calm,Calm,-,N/A,,Clear,0,2013-06-15 08:53:00
1:53 AM,46.0,37.0,71,30.24,10.0,Calm,Calm,-,N/A,,Clear,0,2013-06-15 09:53:00
2:53 AM,43.0,37.0,80,30.26,10.0,Calm,Calm,-,N/A,,Clear,0,2013-06-15 10:53:00
3:53 AM,41.0,36.0,82,30.28,10.0,NE,4.6,-,N/A,,Clear,50,2013-06-15 11:53:00
4:53 AM,41.0,36.0,82,30.28,10.0,Calm,Calm,-,N/A,,Clear,0,2013-06-15 12:53:00
5:53 AM,46.9,39.0,74,30.30,10.0,North,5.8,-,N/A,,Clear,10,2013-06-15 13:53:00
6:00 AM,48.9,39.0,69,30.30,10.0,North,3.5,-,N/A,,Partly Cloudy,360,2013-06-15 14:00:00
6:53 AM,55.0,39.9,57,30.29,10.0,Calm,Calm,-,N/A,,Partly Cloudy,0,2013-06-15 14:53:00
7:53 AM,55.9,41.0,57,30.30,10.0,SE,5.8,-,N/A,,Partly Cloudy,130,2013-06-15 15:53:00
8:53 AM,57.9,41.0,53,30.29,10.0,Calm,Calm,-,N/A,,Partly Cloudy,0,2013-06-15 16:53:00
9:53 AM,62.1,41.0,46,30.27,10.0,Variable,3.5,-,N/A,,Partly Cloudy,0,2013-06-15 17:53:00
10:53 AM,66.0,41.0,40,30.27,10.0,Calm,Calm,-,N/A,,Partly Cloudy,0,2013-06-15 18:53:00
11:53 AM,70.0,39.9,33,30.25,10.0,Calm,Calm,-,N/A,,Partly Cloudy,0,2013-06-15 19:53:00
12:53 PM,75.0,37.0,25,30.24,10.0,East,5.8,-,N/A,,Partly Cloudy,80,2013-06-15 20:53:00
1:53 PM,77.0,36.0,23,30.22,10.0,Variable,3.5,-,N/A,,Partly Cloudy,0,2013-06-15 21:53:00
2:53 PM,78.1,39.0,25,30.21,10.0,Variable,5.8,-,N/A,,Partly Cloudy,0,2013-06-15 22:53:00
3:53 PM,78.1,37.0,23,30.20,10.0,Variable,4.6,-,N/A,,Scattered Clouds,0,2013-06-15 23:53:00
4:53 PM,80.1,34.0,19,30.18,10.0,Calm,Calm,-,N/A,,Scattered Clouds,0,2013-06-16 00:53:00
5:53 PM,81.0,33.1,18,30.16,10.0,Calm,Calm,-,N/A,,Scattered Clouds,0,2013-06-16 01:53:00
6:53 PM,80.1,34.0,19,30.14,10.0,Calm,Calm,-,N/A,,Scattered Clouds,0,2013-06-16 02:53:00
7:53 PM,81.0,30.9,16,30.13,10.0,Variable,5.8,-,N/A,,Scattered Clouds,0,2013-06-16 03:53:00
8:53 PM,81.0,37.9,21,30.13,10.0,Calm,Calm,-,N/A,,Scattered Clouds,0,2013-06-16 04:53:00
9:28 PM,79.0,35.1,20,30.15,10.0,Calm,Calm,-,N/A,,Scattered Clouds,0,2013-06-16 05:28:00
9:53 PM,77.0,36.0,23,30.13,10.0,Calm,Calm,-,N/A,,Clear,0,2013-06-16 05:53:00
10:53 PM,64.0,43.0,46,30.14,10.0,North,6.9,-,N/A,,Clear,10,2013-06-16 06:53:00
11:53 PM,57.0,44.1,62,30.16,10.0,Calm,Calm,-,N/A,,Clear,0,2013-06-16 07:53:00